Flag for U.S.A. Weather past 2 weeks in Salem, Oregon, U.S.A.

Now
70 °F

Clear.


Feels Like: 76 °F
Forecast: 62 / 96 °F
Wind: No wind

Location: McNary Field

Current Time: Jul 5, 2015 at 2:37:30 AM

Latest Report: Jul 5, 2015 at 1:56 AM


Visibility: 10 mi

Pressure: 29.76 "Hg

Humidity: 61%

Dew point: 56 °F

Location of SalemLocation

Historic Weather in Salem — Graph

°F

Salem temperature yesterday

Maximum temperature yesterday: 97 °F (at 4:56 PM)
Minimum temperature yesterday: 60 °F (at 4:56 AM)
Average temperature yesterday: 78 °F

Past Weeks' High & Low Weather Summary

 TemperatureHumidityPressure
High99 °F (Jun 26, 4:56 PM)89% (Jun 22, 5:56 AM)30.14 "Hg (Jun 22, 5:56 AM)
Low50 °F (Jun 22, 3:56 AM)12% (Jul 3, 3:56 PM)29.71 "Hg (Jul 4, 6:56 PM)
Average75 °F48%29.96 "Hg
* Reported Jun 20 12:56 AM — Jul 5 12:56 AM, Salem, Weather by CustomWeather, © 2015

Note: Actual official high and low records may vary slightly from our data, if they occured in-between our weather recording intervals... More about our weather records

Advertising

Salem weather history for previous 24 hours

 ConditionsComfort  
Time TempWeatherWind HumidityBarometerVisibility
12:56 AM
Sun, Jul 5
69 °FClear.5 mph61%29.76 "Hg10 mi
11:56 PM
Sat, Jul 4
73 °FClear.No wind51%29.76 "Hg9 mi
10:56 PM75 °FClear.No wind45%29.76 "Hg10 mi
9:56 PM81 °FSunny.6 mph34%29.76 "Hg10 mi
8:56 PM84 °FSunny.6 mph32%29.74 "Hg10 mi
7:56 PM92 °FSunny.9 mph26%29.72 "Hg10 mi
6:56 PM94 °FSunny.No wind20%29.71 "Hg10 mi
5:56 PM95 °FSunny.5 mph17%29.72 "Hg10 mi
4:56 PM97 °FSunny.6 mph17%29.73 "Hg10 mi
3:56 PM95 °FSunny.5 mph19%29.76 "Hg10 mi
2:56 PM92 °FSunny.5 mph23%29.78 "Hg10 mi
1:56 PM89 °FSunny.5 mph25%29.80 "Hg10 mi
12:56 PM87 °FSunny.6 mph28%29.81 "Hg10 mi
11:56 AM84 °FSunny.6 mph32%29.83 "Hg10 mi
10:56 AM80 °FSunny.No wind36%29.85 "Hg10 mi
9:56 AM75 °FSunny.No wind42%29.86 "Hg10 mi
8:56 AM71 °FSunny.No wind47%29.87 "Hg10 mi
7:56 AM68 °FSunny.3 mph53%29.88 "Hg10 mi
6:56 AM63 °FSunny.No wind70%29.88 "Hg10 mi
5:56 AM60 °FClear.No wind69%29.87 "Hg10 mi
4:56 AM60 °FClear.No wind67%29.85 "Hg10 mi
3:56 AM63 °FClear.No wind68%29.85 "Hg10 mi
2:56 AM65 °FClear.No wind59%29.85 "Hg10 mi
Weather by CustomWeather, © 2015

See weather overviewHow to use our weather pages